Location: *
(45.9500°N, 9.0833°E)
Time: 19:14:17
(UTC+00:00)

Vanguard 2 Rocket - Pass Details

Date: 15 June 2021
Orbit: 555 x 3325 km, 32.9° (Epoch: 30 July)

Event Time Altitude Azimuth Distance (km) Brightness Sun altitude
Rises 00:59:58 0° 269° (W) 5,559 10.7 -17.4°
Reaches altitude 10° 01:05:19 10° 256° (WSW) 3,985 9.8 -17.0°
Enters shadow 01:09:53 19° 231° (SW) 2,847 8.9 -16.7°
Maximum altitude 01:11:52 20° 214° (SW) 2,541 - -16.6°
Drops below altitude 10° 01:16:32 10° 168° (SSE) 2,705 - -16.2°
Sets 01:19:20 0° 151° (SSE) 3,348 - -16.0°
